Location: Kuffner-Sternwarte
(48.2130°N, 16.2960°E)
Time: 04:05:00
(UTC+02:00)

COROT - Pass Details

Date: 20 June 2018
Orbit: 599 x 890 km, 90.0° (Epoch: 18 August)

Event Time Altitude Azimuth Distance (km) Brightness Sun altitude
Rises 21:47:15 0° 346° (NNW) 3,491 10.6 -6.8°
Reaches altitude 10° 21:50:53 10° 323° (NW) 2,563 10.5 -7.2°
Maximum altitude 21:53:44 14° 294° (WNW) 2,278 9.6 -7.5°
Drops below altitude 10° 21:56:35 10° 264° (W) 2,553 9.2 -7.8°
Sets 22:00:12 0° 241° (WSW) 3,466 9.5 -8.2°
